Stations météo

réclame
Mon MeteoGroup
Amberieu, France (7482): Température de l'air & dewpoint: 12.01.2020 00:00:00 - 18.01.2020 00:00:00 (CET)Amberieu, France (7482): Température de l'air 5cm: 12.01.2020 00:00:00 - 18.01.2020 00:00:00 (CET)Amberieu, France (7482): Température de l'air -20cm & Température de l'air -100cm: 12.01.2020 00:00:00 - 18.01.2020 00:00:00 (CET)Amberieu, France (7482): Vitesse du vent & gusts: 12.01.2020 00:00:00 - 18.01.2020 00:00:00 (CET)Amberieu, France (7482): Direction du vent: 12.01.2020 00:00:00 - 18.01.2020 00:00:00 (CET)Amberieu, France (7482): reduced air pressure: 12.01.2020 00:00:00 - 18.01.2020 00:00:00 (CET)Amberieu, France (7482): visibility: 12.01.2020 00:00:00 - 18.01.2020 00:00:00 (CET)Amberieu, France (7482): Ensoleillement: 12.01.2020 00:00:00 - 18.01.2020 00:00:00 (CET)Amberieu, France (7482): Quantités de précipitations: 12.01.2020 00:00:00 - 18.01.2020 00:00:00 (CET)
Date & Time tt [°C] td [°C] tt 5cm [°C] tt -20cm [°C] tt -100cm [°C] ff [km/h] ff [knt] fx [km/h] fx [knt] dd ppp [hPa] vv [km] sd [min] rr [mm]
18.01.2020 00:00:00 - - - - - - - - - - - - - -
17.01.2020 23:00:00 4,9 4,2 4,8 7,2 8,7 8 4 13 7 SW 1029,3 16 0 0,0
17.01.2020 22:00:00 4,8 4,1 4,6 7,2 8,7 5 3 12 7 SSW 1028,7 8 0 0,0
17.01.2020 21:00:00 5,1 4,4 4,8 7,1 8,7 6 4 10 5 SSW 1028,0 4,7 0 0,0
17.01.2020 20:00:00 5,2 4,3 4,8 7,1 8,7 0 0 10 5 N 1027,2 11 0 0,0
17.01.2020 19:00:00 5,5 4,3 5,7 7,1 8,7 6 3 11 6 E 1025,7 20 0 0,2
17.01.2020 18:00:00 5,6 4,4 5,2 7,1 8,7 5 3 47 26 E 1025,4 15 0 5,9
17.01.2020 17:00:00 8,1 5,9 8,3 7,1 8,7 10 6 38 20 SW 1024,1 20 7 0,0
17.01.2020 16:00:00 8,4 6,2 8,8 7,1 8,7 8 4 23 13 S 1022,8 20 11 0,2
17.01.2020 15:00:00 8,9 6,3 8,4 7,1 8,7 13 7 29 16 S 1022,5 20 6 0,0
17.01.2020 14:00:00 8,0 6,5 7,2 7,1 8,7 16 9 32 17 S 1022,6 20 0 3,5
17.01.2020 13:00:00 7,0 5,3 7,4 7,1 8,7 12 7 26 14 S 1023,5 6 0 3,0
17.01.2020 12:00:00 7,8 5,1 7,5 7,1 8,7 12 7 28 15 S 1024,1 7 0 1,0
17.01.2020 11:00:00 9,0 3,6 8,5 7,1 8,6 14 8 34 18 S 1024,0 20 0 0,0
17.01.2020 10:00:00 9,5 2,8 8,7 7,1 8,7 18 10 35 19 S 1023,9 20 2 0,0
17.01.2020 09:00:00 9,0 2,5 7,9 7,1 8,7 17 9 37 20 S 1024,3 20 0 0,0
17.01.2020 08:00:00 8,6 2,4 7,4 7,1 8,6 18 10 41 22 S 1024,3 20 0 0,0
17.01.2020 07:00:00 8,3 2,1 7,7 7,0 8,7 19 11 45 25 S 1023,9 20 0 0,0
17.01.2020 06:00:00 8,5 2,1 8,1 7,1 8,6 22 12 40 22 S 1023,8 20 0 0,0
17.01.2020 05:00:00 9,0 2,3 7,6 7,1 8,7 21 12 41 22 S 1023,9 20 0 0,0
17.01.2020 04:00:00 8,2 1,8 6,5 7,1 8,7 16 9 39 21 S 1024,7 20 0 0,0
17.01.2020 03:00:00 7,4 0,8 6,1 7,0 8,6 19 10 35 19 S 1025,1 20 0 0,0
17.01.2020 02:00:00 7,1 1,4 6,6 7,1 8,7 17 9 47 26 S 1024,6 20 0 0,0
17.01.2020 01:00:00 8,8 1,5 8,7 7,1 8,6 21 11 43 23 S 1024,5 20 0 0,0
17.01.2020 00:00:00 9,4 2,3 8,5 7,1 8,7 22 12 40 21 S 1025,2 20 0 0,0
16.01.2020 23:00:00 8,9 2,2 8,3 7,0 8,6 20 11 41 22 S 1025,6 20 0 0,0
16.01.2020 22:00:00 9,2 2,5 8,7 7,1 8,6 16 9 39 21 S 1025,9 20 0 0,0
16.01.2020 21:00:00 9,5 2,8 9,0 7,0 8,7 18 10 41 22 S 1026,4 20 0 0,0
16.01.2020 20:00:00 9,5 2,8 8,4 6,9 8,6 19 11 39 21 S 1026,8 20 0 0,0
16.01.2020 19:00:00 8,8 2,6 8,0 6,9 8,6 16 9 32 18 S 1026,7 20 0 0,0
16.01.2020 18:00:00 10,4 3,0 9,5 6,9 8,6 14 8 32 17 SSE 1026,3 20 0 0,0
16.01.2020 17:00:00 11,4 2,9 10,9 6,9 8,6 12 6 25 13 S 1026,4 20 50 0,0
16.01.2020 16:00:00 12,4 2,5 16,1 6,9 8,6 14 8 28 15 S 1026,3 20 60 0,0
16.01.2020 15:00:00 12,7 2,5 15,5 6,9 8,6 13 7 29 16 S 1026,4 20 60 0,0
16.01.2020 14:00:00 12,7 3,1 16,7 6,9 8,6 14 8 32 17 S 1027,1 20 60 0,0
16.01.2020 13:00:00 11,7 2,9 15,9 6,8 8,6 16 9 32 17 S 1027,8 20 60 0,0
16.01.2020 12:00:00 11,4 3,7 13,9 6,9 8,6 14 8 27 15 S 1028,6 20 60 0,0
16.01.2020 11:00:00 9,7 3,4 10,7 7,0 8,6 7 4 25 14 SSE 1029,1 20 60 0,0
16.01.2020 10:00:00 5,5 3,0 1,2 6,9 8,6 3 1 6 3 N 1029,5 20 60 0,0
16.01.2020 09:00:00 2,7 1,2 -0,2 6,9 8,6 0 0 11 6 N 1029,8 20 2 0,0
16.01.2020 08:00:00 2,7 0,6 -0,5 6,9 8,6 6 3 9 5 SW 1029,3 20 0 0,0
16.01.2020 07:00:00 3,9 1,8 -0,1 7,0 8,6 4 2 8 4 S 1028,9 20 0 0,0
16.01.2020 06:00:00 3,8 1,0 0,5 6,9 8,6 5 3 11 6 E 1028,9 20 0 0,0
16.01.2020 05:00:00 5,6 1,7 1,8 6,9 8,6 5 3 13 7 SSW 1028,9 20 0 0,0
16.01.2020 04:00:00 7,5 2,6 5,6 6,9 8,6 8 4 19 11 S 1028,6 20 0 0,0
16.01.2020 03:00:00 9,8 3,1 9,7 6,8 8,6 11 6 29 16 S 1028,5 20 0 0,0
16.01.2020 02:00:00 10,2 3,2 9,4 6,9 8,6 13 7 34 18 S 1028,5 20 0 0,0
16.01.2020 01:00:00 9,1 2,6 8,8 6,9 8,6 11 6 29 16 S 1028,6 20 0 0,0
16.01.2020 00:00:00 10,1 3,1 9,6 6,8 8,6 14 8 36 19 S 1028,4 20 0 0,0
15.01.2020 23:00:00 9,7 2,8 9,3 6,8 8,6 16 9 39 21 S 1028,2 20 0 0,0
15.01.2020 22:00:00 9,6 3,1 8,9 6,9 8,6 16 9 32 17 S 1027,7 20 0 0,0
15.01.2020 21:00:00 9,5 3,5 8,4 6,7 8,7 15 8 41 22 S 1027,5 20 0 0,0
15.01.2020 20:00:00 9,6 3,3 8,8 6,8 8,6 16 9 39 21 S 1027,3 20 0 0,0
15.01.2020 19:00:00 9,7 3,6 8,1 6,8 8,6 18 10 40 22 S 1026,8 20 0 0,0
15.01.2020 18:00:00 9,7 3,6 9,1 6,7 8,6 16 9 42 23 S 1025,9 20 0 0,0
15.01.2020 17:00:00 10,5 3,5 10,5 6,7 8,6 23 12 49 26 S 1024,5 20 46 0,0
15.01.2020 16:00:00 11,6 4,3 14,1 6,6 8,6 33 18 58 32 SSW 1024,0 20 60 0,0
15.01.2020 15:00:00 12,2 4,4 12,8 6,6 8,6 33 18 57 31 S 1023,0 20 20 0,0
15.01.2020 14:00:00 11,1 4,3 12,5 6,6 8,6 40 21 69 37 S 1023,6 20 1 0,0
15.01.2020 13:00:00 12,3 4,0 12,8 6,7 8,7 32 18 53 29 S 1023,1 20 3 0,0
15.01.2020 12:00:00 11,5 2,5 12,4 6,6 8,6 22 12 42 23 SSW 1023,1 20 7 0,0
15.01.2020 11:00:00 12,4 2,0 13,5 6,7 8,6 24 13 44 24 S 1022,6 20 57 0,0
15.01.2020 10:00:00 10,8 0,8 9,8 6,6 8,6 23 12 44 24 S 1021,6 20 60 0,0
15.01.2020 09:00:00 9,6 1,0 9,0 6,7 8,7 23 12 69 37 S 1021,1 20 2 0,0
15.01.2020 08:00:00 9,5 1,4 7,9 6,6 8,7 24 13 64 35 S 1021,0 20 0 0,0
15.01.2020 07:00:00 8,9 1,1 8,4 6,7 8,7 30 16 52 28 S 1020,7 20 0 0,0
15.01.2020 06:00:00 9,5 1,1 8,3 6,7 8,7 28 15 68 37 S 1020,1 20 0 0,0
15.01.2020 05:00:00 8,9 0,6 8,4 6,6 8,7 21 11 46 25 S 1020,4 20 0 0,0
15.01.2020 04:00:00 9,5 0,1 8,9 6,6 8,7 22 12 52 28 S 1020,1 20 0 0,0
15.01.2020 03:00:00 9,8 0,7 9,4 6,6 8,7 27 14 62 34 S 1020,3 20 0 0,0
15.01.2020 02:00:00 10,3 0,9 9,4 6,6 8,7 42 23 87 47 S 1020,4 20 0 0,0
15.01.2020 01:00:00 9,7 0,8 9,0 6,6 8,7 28 15 56 30 S 1020,7 20 0 0,0
15.01.2020 00:00:00 9,5 1,1 8,7 6,5 8,7 26 14 54 29 S 1020,9 20 0 0,0
14.01.2020 23:00:00 8,8 1,0 8,6 6,5 8,7 23 12 50 27 S 1021,0 20 0 0,0
14.01.2020 22:00:00 9,6 1,0 8,9 6,5 8,7 25 13 50 27 S 1020,5 20 0 0,0
14.01.2020 21:00:00 9,7 0,8 9,3 6,5 8,7 21 11 45 25 S 1020,7 20 0 0,0
14.01.2020 20:00:00 9,9 1,5 9,4 6,5 8,7 21 11 44 24 S 1020,6 20 0 0,0
14.01.2020 19:00:00 9,6 1,2 8,8 6,4 8,7 15 8 38 21 S 1020,7 20 0 0,0
14.01.2020 18:00:00 9,5 1,6 8,9 6,4 8,7 15 8 39 21 S 1020,8 20 0 0,0
14.01.2020 17:00:00 10,6 1,9 10,5 6,4 8,7 22 12 43 23 S 1020,3 20 43 0,0
14.01.2020 16:00:00 11,6 1,8 12,9 6,4 8,7 27 14 52 28 S 1020,0 20 16 0,0
14.01.2020 15:00:00 11,6 2,1 13,0 6,3 8,8 28 15 59 32 S 1019,8 20 0 0,0
14.01.2020 14:00:00 12,7 2,8 15,0 6,3 8,7 33 18 67 36 S 1019,9 20 55 0,0
14.01.2020 13:00:00 12,1 2,0 14,4 6,3 8,7 21 11 46 25 S 1020,1 20 60 0,0
14.01.2020 12:00:00 11,1 1,3 12,9 6,3 8,7 19 10 41 22 S 1021,1 20 60 0,0
14.01.2020 11:00:00 9,9 0,8 9,3 6,3 8,7 23 13 45 24 S 1021,2 20 56 0,0
14.01.2020 10:00:00 8,1 0,6 7,1 6,3 8,8 18 10 37 20 S 1021,2 20 60 0,0
14.01.2020 09:00:00 6,6 0,3 5,7 6,4 8,8 17 9 39 21 S 1020,8 20 2 0,0
14.01.2020 08:00:00 7,0 0,6 6,1 6,4 8,8 17 9 40 22 S 1020,2 20 0 0,0
14.01.2020 07:00:00 6,8 0,7 5,5 6,4 8,8 17 9 39 21 S 1020,1 20 0 0,0
14.01.2020 06:00:00 6,4 0,5 4,8 6,4 8,8 18 10 37 20 S 1020,4 20 0 0,0
14.01.2020 05:00:00 5,6 0,4 5,0 6,3 8,8 16 9 36 20 S 1020,0 20 0 0,0
14.01.2020 04:00:00 6,8 0,9 6,5 6,4 8,8 21 11 50 27 S 1019,4 20 0 0,0
14.01.2020 03:00:00 6,7 1,6 6,1 6,4 8,8 18 10 41 22 S 1020,4 20 0 0,0
14.01.2020 02:00:00 6,6 1,5 5,8 6,4 8,8 20 11 42 23 S 1020,1 20 0 0,0
14.01.2020 01:00:00 6,6 1,5 6,0 6,4 8,8 15 8 39 21 S 1020,4 20 0 0,0
14.01.2020 00:00:00 6,7 1,8 5,9 6,4 8,8 18 10 37 20 S 1020,7 20 0 0,0
13.01.2020 23:00:00 6,7 1,8 5,7 6,5 8,8 18 10 32 17 S 1020,2 20 0 0,0
13.01.2020 22:00:00 6,6 1,3 6,0 6,4 8,8 15 8 36 19 S 1020,3 20 0 0,0
13.01.2020 21:00:00 7,0 0,9 6,6 6,5 8,8 16 8 33 18 S 1020,4 20 0 0,0
13.01.2020 20:00:00 7,3 0,7 5,9 6,3 8,8 16 9 42 23 S 1020,9 20 0 0,0
13.01.2020 19:00:00 7,1 0,1 6,2 6,4 8,8 16 9 37 20 S 1021,2 20 0 0,0
13.01.2020 18:00:00 7,7 -0,3 7,1 6,4 8,8 19 10 40 22 S 1020,7 20 0 0,0
13.01.2020 17:00:00 7,8 -0,2 7,3 6,4 8,8 16 9 39 21 S 1021,2 20 44 0,0
13.01.2020 16:00:00 9,1 -0,5 10,9 6,4 8,8 15 8 40 21 S 1020,8 20 60 0,0
13.01.2020 15:00:00 5,5 0,5 6,4 6,5 8,8 8 4 17 9 SSW 1022,6 13 20 0,0
13.01.2020 14:00:00 4,5 0,1 7,1 6,5 8,8 9 5 14 7 SSW 1023,8 19 5 0,0
13.01.2020 13:00:00 3,7 -0,1 6,4 6,6 8,8 8 5 14 8 SSW 1024,5 19 17 0,0
13.01.2020 12:00:00 3,1 0,3 5,2 6,6 8,8 10 5 17 9 SW 1025,7 18 18 0,0
13.01.2020 11:00:00 1,8 -0,5 1,1 6,6 8,8 6 3 10 5 S 1026,0 17 60 0,0
13.01.2020 10:00:00 -0,6 -1,9 -3,0 6,7 8,8 3 2 7 4 SSW 1027,0 14 47 0,0
13.01.2020 09:00:00 -2,3 -3,3 -5,2 6,7 8,8 3 1 5 3 E 1027,6 20 6 0,0
13.01.2020 08:00:00 -2,3 -3,0 -5,6 6,8 8,8 2 1 6 3 E 1027,6 20 0 0,0
13.01.2020 07:00:00 -2,5 -3,3 -5,2 6,8 8,9 3 1 6 4 N 1027,6 20 0 0,0
13.01.2020 06:00:00 -3,0 -4,1 -5,0 6,9 8,9 0 0 4 2 N 1028,0 17 0 0,0
13.01.2020 05:00:00 -1,6 -2,3 -4,9 6,8 8,8 3 2 7 4 E 1028,3 17 0 0,0
13.01.2020 04:00:00 -2,2 -3,5 -5,3 6,9 8,8 0 0 7 4 N 1028,8 20 0 0,0
13.01.2020 03:00:00 -1,8 -2,6 -4,9 6,9 8,8 3 2 5 3 ENE 1029,2 19 0 0,0
13.01.2020 02:00:00 -1,4 -2,2 -5,2 6,9 8,9 3 1 6 3 N 1029,3 19 0 0,0
13.01.2020 01:00:00 -2,3 -3,4 -4,8 6,9 8,8 5 3 6 3 NNE 1029,9 15 0 0,0
13.01.2020 00:00:00 -1,0 -1,8 -3,1 7,0 8,8 4 2 6 3 NE 1030,3 20 0 0,0
12.01.2020 23:00:00 -0,9 -2,0 -4,3 6,9 8,8 4 2 7 4 NNE 1030,5 11 0 0,0
12.01.2020 22:00:00 -1,0 -2,1 -2,0 7,0 8,8 6 3 8 4 ENE 1030,8 15 0 0,0
12.01.2020 21:00:00 0,0 -1,1 -0,9 7,0 8,9 6 3 8 4 NNE 1030,9 11 0 0,0
12.01.2020 20:00:00 0,4 -1,0 -0,7 6,9 8,8 6 3 9 5 NE 1031,2 13 0 0,0
12.01.2020 19:00:00 1,1 -1,1 -0,1 6,9 8,8 5 3 8 5 NE 1031,0 15 0 0,0
12.01.2020 18:00:00 3,0 -0,1 1,3 6,9 8,8 8 5 10 6 ENE 1030,8 20 0 0,0
12.01.2020 17:00:00 4,6 0,2 2,7 7,0 8,8 6 3 7 4 NNW 1030,5 20 46 0,0
12.01.2020 16:00:00 5,9 0,4 11,3 7,0 8,8 2 1 7 4 ENE 1030,3 20 58 0,0
12.01.2020 15:00:00 6,4 0,9 10,9 7,0 8,8 0 0 13 7 N 1030,6 19 60 0,0
12.01.2020 14:00:00 5,0 1,5 6,4 7,0 8,8 5 3 15 8 NNW 1031,0 18 55 0,0
12.01.2020 13:00:00 3,0 0,9 6,1 7,0 8,8 10 5 17 9 N 1032,3 9 15 0,0
12.01.2020 12:00:00 2,7 0,8 5,0 7,1 8,8 0 0 9 5 N 1033,1 12 9 0,0
12.01.2020 11:00:00 1,9 1,2 1,6 7,1 8,8 4 2 8 5 ESE 1033,2 7 0 0,0
12.01.2020 10:00:00 -0,2 -0,9 -2,4 7,1 8,8 5 3 9 5 NE 1033,2 7 26 0,0
12.01.2020 09:00:00 -0,7 -1,4 -2,3 7,1 8,8 4 2 10 5 S 1032,0 8 2 0,0
12.01.2020 08:00:00 -1,5 -2,2 -2,7 7,1 8,8 4 2 6 3 NE 1032,4 7 0 0,0
12.01.2020 07:00:00 -1,2 -2,0 -3,0 7,2 8,8 3 2 9 5 NE 1031,9 5 0 0,0
12.01.2020 06:00:00 -0,5 -1,5 -0,5 7,2 8,8 5 3 7 4 N 1031,5 12 0 0,0
12.01.2020 05:00:00 -0,8 -2,4 -1,2 7,2 8,8 3 2 11 6 NE 1031,7 11 0 0,0
12.01.2020 04:00:00 0,7 -0,2 -2,1 7,3 8,8 4 2 8 4 NE 1031,8 16 0 0,0
12.01.2020 03:00:00 1,4 -0,1 -1,7 7,3 8,8 5 3 11 6 ESE 1032,0 20 0 0,0
12.01.2020 02:00:00 1,6 0,1 -1,2 7,2 8,8 2 1 3 2 NNE 1032,1 19 0 0,0
12.01.2020 01:00:00 1,8 0,2 -0,7 7,2 8,8 0 0 4 2 N 1032,3 19 0 0,0
12.01.2020 00:00:00 2,1 0,5 0,7 7,2 8,8 3 2 9 5 ENE 1032,8 20 0 0,0

tt = Température de l'air
td = dewpoint
tt 5cm = Température de l'air 5cm
tt -20cm = Température de l'air -20cm
tt -100cm = Température de l'air -100cm
ff = Vitesse du vent
fx = gusts
dd = Direction du vent
ppp = reduced air pressure
vv = visibility
sd = Ensoleillement
rr = Quantités de précipitations

stations d'obs. à proximité